Weather History for Marshall, MN

Change the Weather History Date:

Wednesday, May 20, 2009

  Actual Average Record
Temperature  
Mean Temperature 80 °F -  
Max Temperature 91 °F 71 °F 88 °F (1955)
Min Temperature 68 °F 47 °F 24 °F (2002)
Cooling Degree Days 14    
Growing Degree Days 30 (Base 50)    
Moisture  
Dew Point 49 °F    
Average Humidity 37    
Maximum Humidity 47    
Minimum Humidity 24    
Precipitation  
Precipitation 0.00 in - - ()
Sea Level Pressure  
Sea Level Pressure 29.72 in    
Wind  
Wind Speed 34 mph (SW)    
Max Wind Speed 47 mph    
Max Gust Speed 55 mph    
Visibility 10 miles    
Events      
Averages and records for this station are not official NWS values.
T = Trace of Precipitation, MM = Missing Value Source: NWS Daily Summary

Daily Weather History Graph

Daily Weather History Graph

Search for Another Location

Airport:

Trip Planner

Search our weather history database for the weather conditions in past years. The results will help you decide how hot, cold, wet, or windy it might be!

Date:

Astronomy

May. 20, 2009 Rise Set
Actual Time 5:50 AM CDT 8:49 PM CDT
Civil Twilight 5:16 AM CDT 9:24 PM CDT
Nautical Twilight 4:32 AM CDT 10:08 PM CDT
Astronomical Twilight 3:40 AM CDT 11:01 PM CDT
Moon 3:17 AM CDT (5/20) 4:41 PM CDT (5/20)
Length of Visible Light 16h 08m
Length of Day
14h 59m
Waning Crescent, 18% of the Moon is Illuminated
May 20
Waning Crescent
May 24
New
May 30
First Quarter
Jun 7
Full
Jun 15
Last Quarter

Hourly Weather History & Observations

Time (CDT) Temp. Heat Index Dew Point Humidity Pressure Visibility Wind Dir Wind Speed Gust Speed Precip Events Conditions
12:15 AM 75.2 °F - 48.2 °F 38% 29.79 in 10.0 mi SSW 38.0 mph 47.2 mph N/A   Clear
12:35 AM 75.2 °F - 48.2 °F 38% 29.79 in 10.0 mi SSW 36.8 mph 43.7 mph N/A   Clear
12:55 AM 73.4 °F - 46.4 °F 38% 29.79 in 10.0 mi SSW 35.7 mph 44.9 mph N/A   Clear
1:35 AM 73.4 °F - 46.4 °F 38% 29.78 in 10.0 mi SSW 33.4 mph 43.7 mph N/A   Clear
1:55 AM 73.4 °F - 46.4 °F 38% 29.78 in 10.0 mi SSW 33.4 mph 43.7 mph N/A   Clear
2:15 AM 71.6 °F - 46.4 °F 41% 29.77 in 10.0 mi SSW 35.7 mph 43.7 mph N/A   Clear
2:35 AM 71.6 °F - 46.4 °F 41% 29.77 in 10.0 mi SSW 34.5 mph 44.9 mph N/A   Clear
2:55 AM 71.6 °F - 46.4 °F 41% 29.76 in 10.0 mi SSW 31.1 mph 43.7 mph N/A   Clear
3:15 AM 71.6 °F - 46.4 °F 41% 29.76 in 10.0 mi SSW 34.5 mph 44.9 mph N/A   Clear
3:35 AM 69.8 °F - 46.4 °F 43% 29.76 in 10.0 mi SSW 33.4 mph 44.9 mph N/A   Clear
3:55 AM 69.8 °F - 46.4 °F 43% 29.76 in 10.0 mi SSW 32.2 mph 44.9 mph N/A   Clear
4:15 AM 69.8 °F - 46.4 °F 43% 29.75 in 10.0 mi SSW 36.8 mph 41.4 mph N/A   Clear
4:35 AM 69.8 °F - 46.4 °F 43% 29.75 in 10.0 mi SSW 36.8 mph 47.2 mph N/A   Clear
4:55 AM 69.8 °F - 46.4 °F 43% 29.75 in 10.0 mi SSW 36.8 mph 42.6 mph N/A   Clear
5:15 AM 69.8 °F - 46.4 °F 43% 29.74 in 10.0 mi SSW 36.8 mph 43.7 mph N/A   Clear
5:35 AM 69.8 °F - 46.4 °F 43% 29.73 in 10.0 mi SSW 34.5 mph 44.9 mph N/A   Clear
5:55 AM 68.0 °F - 46.4 °F 46% 29.73 in 10.0 mi SSW 33.4 mph 43.7 mph N/A   Clear
6:15 AM 68.0 °F - 46.4 °F 46% 29.72 in 10.0 mi SSW 36.8 mph 46.0 mph N/A   Clear
6:35 AM 68.0 °F - 46.4 °F 46% 29.71 in 10.0 mi SSW 35.7 mph 46.0 mph N/A   Clear
6:55 AM 68.0 °F - 46.4 °F 46% 29.71 in 10.0 mi SSW 38.0 mph 49.5 mph N/A   Clear
7:15 AM 68.0 °F - 46.4 °F 46% 29.72 in 10.0 mi SSW 38.0 mph 49.5 mph N/A   Clear
7:35 AM 69.8 °F - 46.4 °F 43% 29.71 in 10.0 mi SSW 36.8 mph 51.8 mph N/A   Clear
7:55 AM 69.8 °F - 46.4 °F 43% 29.71 in 10.0 mi SSW 39.1 mph 51.8 mph N/A   Clear
8:15 AM 69.8 °F - 46.4 °F 43% 29.71 in 10.0 mi SSW 38.0 mph 52.9 mph N/A   Clear
8:35 AM 71.6 °F - 48.2 °F 43% 29.70 in 10.0 mi SSW 42.6 mph 51.8 mph N/A   Clear
8:55 AM 71.6 °F - 48.2 °F 43% 29.70 in 9.0 mi SSW 43.7 mph 52.9 mph N/A   Clear
9:15 AM 73.4 °F - 48.2 °F 41% 29.70 in 9.0 mi SSW 42.6 mph 55.2 mph N/A   Clear
9:35 AM 73.4 °F - 48.2 °F 41% 29.69 in 10.0 mi SSW 47.2 mph 55.2 mph N/A   Clear
9:55 AM 75.2 °F - 48.2 °F 38% 29.69 in 10.0 mi SSW 41.4 mph 51.8 mph N/A   Clear
10:15 AM 75.2 °F - 48.2 °F 38% 29.69 in 10.0 mi SSW 38.0 mph 51.8 mph N/A   Clear
10:35 AM 77.0 °F - 48.2 °F 36% 29.69 in 10.0 mi SSW 38.0 mph 52.9 mph N/A   Clear
10:55 AM 78.8 °F - 48.2 °F 34% 29.69 in 10.0 mi SSW 39.1 mph 47.2 mph N/A   Clear
11:15 AM 78.8 °F - 48.2 °F 34% 29.69 in 10.0 mi SSW 40.3 mph 49.5 mph N/A   Clear
11:35 AM 80.6 °F - 50.0 °F 34% 29.70 in 10.0 mi SSW 36.8 mph 48.3 mph N/A   Clear
11:55 AM 82.4 °F - 50.0 °F 32% 29.71 in 10.0 mi SW 33.4 mph 44.9 mph N/A   Clear
12:15 PM 82.4 °F - 48.2 °F 30% 29.70 in 10.0 mi SSW 38.0 mph 44.9 mph N/A   Clear
12:35 PM 82.4 °F - 50.0 °F 32% 29.69 in 10.0 mi SSW 32.2 mph 46.0 mph N/A   Clear
12:55 PM 84.2 °F - 50.0 °F 30% 29.68 in 10.0 mi South 34.5 mph 47.2 mph N/A   Clear
1:15 PM 87.8 °F - 48.2 °F 25% 29.67 in 10.0 mi SSW 39.1 mph 48.3 mph N/A   Clear
1:35 PM 87.8 °F - 50.0 °F 27% 29.68 in 10.0 mi SSW 34.5 mph 44.9 mph N/A   Clear
1:55 PM 87.8 °F - 50.0 °F 27% 29.68 in 10.0 mi SW 33.4 mph 47.2 mph N/A   Clear
2:15 PM 87.8 °F - 50.0 °F 27% 29.69 in 10.0 mi SSW 33.4 mph 42.6 mph N/A   Clear
2:35 PM 89.6 °F - 50.0 °F 26% 29.68 in 10.0 mi SW 32.2 mph 41.4 mph N/A   Clear
2:55 PM 89.6 °F - 50.0 °F 26% 29.68 in 10.0 mi SSW 32.2 mph 41.4 mph N/A   Clear
3:15 PM 89.6 °F - 50.0 °F 26% 29.68 in 10.0 mi SW 25.3 mph 44.9 mph N/A   Clear
3:35 PM 91.4 °F - 50.0 °F 24% 29.68 in 10.0 mi SSW 35.7 mph 43.7 mph N/A   Clear
3:55 PM 91.4 °F - 50.0 °F 24% 29.68 in 10.0 mi SSW 28.8 mph 39.1 mph N/A   Clear
4:15 PM 91.4 °F - 51.8 °F 26% 29.68 in 10.0 mi SW 29.9 mph 35.7 mph N/A   Clear
4:35 PM 91.4 °F - 51.8 °F 26% 29.68 in 10.0 mi SW 28.8 mph 34.5 mph N/A   Clear
4:55 PM 91.4 °F - 50.0 °F 24% 29.68 in 10.0 mi SW 31.1 mph 36.8 mph N/A   Clear
5:15 PM 91.4 °F - 50.0 °F 24% 29.69 in 10.0 mi SW 25.3 mph 39.1 mph N/A   Clear
5:35 PM 91.4 °F - 51.8 °F 26% 29.70 in 10.0 mi SW 26.5 mph 32.2 mph N/A   Clear
5:55 PM 91.4 °F - 51.8 °F 26% 29.70 in 10.0 mi SW 24.2 mph 34.5 mph N/A   Clear
6:15 PM 91.4 °F - 51.8 °F 26% 29.70 in 10.0 mi SW 20.7 mph 34.5 mph N/A   Clear
6:35 PM 86.0 °F 84.5 °F 55.4 °F 35% 29.71 in 10.0 mi NNW 23.0 mph - N/A   Clear
6:55 PM 84.2 °F 83.0 °F 55.4 °F 37% 29.72 in 10.0 mi NNW 18.4 mph - N/A   Clear
7:15 PM 84.2 °F 83.5 °F 57.2 °F 40% 29.73 in 10.0 mi WNW 16.1 mph 19.6 mph N/A   Clear
7:35 PM 84.2 °F 83.5 °F 57.2 °F 40% 29.74 in 10.0 mi NW 16.1 mph - N/A   Clear
7:55 PM 80.6 °F 80.5 °F 55.4 °F 42% 29.75 in 10.0 mi NNW 21.9 mph - N/A   Clear
8:15 PM 77.0 °F - 53.6 °F 44% 29.77 in 10.0 mi NW 19.6 mph 25.3 mph N/A   Clear
8:35 PM 75.2 °F - 53.6 °F 47% 29.78 in 10.0 mi NNW 16.1 mph - N/A   Clear
8:55 PM 73.4 °F - 50.0 °F 44% 29.80 in 10.0 mi North 19.6 mph - N/A   Clear
9:15 PM 71.6 °F - 48.2 °F 43% 29.81 in 10.0 mi NNW 21.9 mph - N/A   Clear
9:35 PM 69.8 °F - 48.2 °F 46% 29.83 in 10.0 mi NNW 18.4 mph 21.9 mph N/A   Clear
9:55 PM 68.0 °F - 48.2 °F 49% 29.84 in 10.0 mi NNW 18.4 mph - N/A   Mostly Cloudy
10:15 PM 66.2 °F - 48.2 °F 52% 29.86 in 10.0 mi NNW 18.4 mph - N/A   Overcast
10:35 PM 66.2 °F - 46.4 °F 49% 29.88 in 10.0 mi North 17.3 mph - N/A   Overcast
10:55 PM 64.4 °F - 46.4 °F 52% 29.89 in 10.0 mi NNW 10.4 mph - N/A   Mostly Cloudy
11:15 PM 64.4 °F - 48.2 °F 56% 29.90 in 10.0 mi North 6.9 mph - N/A   Mostly Cloudy
11:35 PM 64.4 °F - 48.2 °F 56% 29.91 in 10.0 mi NNW 8.1 mph - N/A   Mostly Cloudy
11:55 PM 64.4 °F - 46.4 °F 52% 29.90 in 10.0 mi North 13.8 mph - N/A   Mostly Cloudy